User: anonymous
Location: Montr�al
(45.5000°N, 73.5830°W)
Time: 13:35:02
(UTC-04:00)
Language:

Cosmos 2369 - Orbit

View from above orbital plane
View from above orbital plane
View from above satellite
View from above satellite

Ground track
Ground track

The orbit data is extracted from the following two-line orbital elements,

1 26069U 00006A   14211.08884363 -.00000132  00000-0 -45164-4 0  3051
2 26069 070.9976 045.0023 0011702 013.6561 122.0613 14.13250771747330
Epoch (UTC): 30 July 2014 02:07:56
Eccentricity: 0.0011702
inclination: 70.9976°
perigee height: 840 km
apogee height: 857 km
right ascension of ascending node: 45.0023°
argument of perigee: 13.6561°
revolutions per day: 14.13250771
mean anomaly at epoch: 122.0613°
orbit number at epoch: 74733

The dashed part of the orbit path shows where the satellite is in the earth's shadow,  

DLR